Погода в Усть-Погожье

Россия / Волгоградская область     49°28′13″N   44°37′02″E
темп.,
°C
ветер,
м/с
пор.,
м/с
влажн.,
%
обл.,
%
осадки,
мм/ч
давл.,
гПа
погр.,
м
23 сентября, чт
чт2300:00+10с2266100 0.0 101424
03:00+9ссв2271100 0.0 101524
06:00+7с3478100 0.0 101576
09:00+10ссв3462100 0.0 1015293
12:00+9св4581100 0.8 1014296
15:00+10ссв3482100 1.0 1013315
18:00+10с3484100 0.1 1012202
21:00+10с228599 0.1 1012118
24 сентября, пт
пт2400:00+9сз348994 0.0 101289
03:00+8с3490100 0.0 101266
06:00+7с3391100 0.0 101339
09:00+11ссз3471100 0.0 1012367
12:00+13св2159100 0.0 1012763
15:00+15сз2350100 0.0 10101025
18:00+13ююз115311 0.0 101011
21:00+12ююв22578 0.0 101018
25 сентября, сб
сб2500:00+10ю3466100 0.0 101069
03:00+10ююз377650 0.0 1009135
06:00+9юз3569100 0.0 100991
09:00+13ю4559100 0.0 1009624
12:00+12ю4776100 0.2 1009584
15:00+15ю3566100 0.6 1008623
18:00+12з4873100 0.4 1009325
21:00+10з4891100 0.4 1010222
26 сентября, вс
вс2600:00+9з489134 0.0 1011230
03:00+8зсз49955 0.0 1012215
06:00+7з37945 0.0 1012155
09:00+12з577326 0.0 1012618
12:00+15з675467 0.3 10111515
15:00+15з6750100 0.4 10101768
18:00+11зюз4688100 1.1 1009559
21:00+10з379219 1.3 1009330
27 сентября, пн
пн2700:00+9з37955 0.0 1008180
03:00+8зсз599299 0.0 1008272
06:00+9сз589097 0.3 1010447
09:00+10ссз588599 0.5 1011474
12:00+13с456357 0.4 1012905
15:00+15ссз685497 1.1 10131407
18:00+13ссз61060100 0.2 1016530
21:00+10ссз497592 0.2 1018329